TimeCST,TemperatureF,Dew PointF,Humidity,Sea Level PressureIn,VisibilityMPH,Wind Direction,Wind SpeedMPH,Gust SpeedMPH,PrecipitationIn,Events,Conditions,WindDirDegrees,DateUTC
12:15 AM,30.2,24.8,80,30.15,7.0,Calm,Calm,-,N/A,,Scattered Clouds,0,2012-11-26 06:15:00
12:35 AM,28.4,23.0,80,30.15,7.0,Calm,Calm,-,N/A,,Scattered Clouds,0,2012-11-26 06:35:00
12:55 AM,30.2,24.8,80,30.16,7.0,Calm,Calm,-,N/A,,Scattered Clouds,0,2012-11-26 06:55:00
1:15 AM,30.2,24.8,80,30.16,7.0,Calm,Calm,-,N/A,,Scattered Clouds,0,2012-11-26 07:15:00
1:35 AM,30.2,24.8,80,30.16,7.0,Calm,Calm,-,N/A,,Scattered Clouds,0,2012-11-26 07:35:00
1:55 AM,28.4,23.0,80,30.16,7.0,Calm,Calm,-,N/A,,Scattered Clouds,0,2012-11-26 07:55:00
2:15 AM,30.2,24.8,80,30.16,7.0,NE,3.5,-,N/A,,Scattered Clouds,50,2012-11-26 08:15:00
2:35 AM,30.2,24.8,80,30.17,7.0,NE,4.6,-,N/A,,Mostly Cloudy,40,2012-11-26 08:35:00
2:55 AM,32.0,26.6,80,30.18,7.0,NE,5.8,-,N/A,,Mostly Cloudy,40,2012-11-26 08:55:00
3:15 AM,33.8,26.6,75,30.18,10.0,NE,9.2,-,N/A,,Overcast,40,2012-11-26 09:15:00
3:35 AM,35.6,26.6,70,30.17,10.0,NE,8.1,-,N/A,,Scattered Clouds,50,2012-11-26 09:35:00
3:55 AM,35.6,26.6,70,30.18,10.0,NE,6.9,-,N/A,,Clear,50,2012-11-26 09:55:00
4:15 AM,35.6,26.6,70,30.18,10.0,NE,9.2,-,N/A,,Scattered Clouds,40,2012-11-26 10:15:00
4:35 AM,35.6,26.6,70,30.19,10.0,NE,9.2,-,N/A,,Scattered Clouds,50,2012-11-26 10:35:00
4:55 AM,35.6,26.6,70,30.21,10.0,ENE,6.9,-,N/A,,Scattered Clouds,60,2012-11-26 10:55:00
5:15 AM,35.6,24.8,65,30.21,10.0,NE,6.9,-,N/A,,Mostly Cloudy,50,2012-11-26 11:15:00
5:35 AM,35.6,24.8,65,30.22,10.0,NE,8.1,-,N/A,,Mostly Cloudy,50,2012-11-26 11:35:00
5:55 AM,35.6,24.8,65,30.23,10.0,NE,8.1,-,N/A,,Mostly Cloudy,50,2012-11-26 11:55:00
6:15 AM,35.6,24.8,65,30.23,10.0,ENE,6.9,-,N/A,,Overcast,60,2012-11-26 12:15:00
6:35 AM,35.6,24.8,65,30.24,10.0,NE,9.2,-,N/A,,Overcast,50,2012-11-26 12:35:00
6:55 AM,35.6,24.8,65,30.26,10.0,NNE,6.9,-,N/A,,Overcast,30,2012-11-26 12:55:00
7:15 AM,35.6,24.8,65,30.28,10.0,NNE,9.2,-,N/A,,Overcast,20,2012-11-26 13:15:00
7:35 AM,35.6,24.8,65,30.28,10.0,NNE,9.2,-,N/A,,Overcast,30,2012-11-26 13:35:00
7:55 AM,35.6,24.8,65,30.29,10.0,NNE,11.5,-,N/A,,Overcast,30,2012-11-26 13:55:00
8:15 AM,35.6,24.8,65,30.30,10.0,NNE,11.5,-,N/A,,Overcast,30,2012-11-26 14:15:00
8:35 AM,35.6,24.8,65,30.32,10.0,NNE,8.1,-,N/A,,Overcast,20,2012-11-26 14:35:00
8:55 AM,35.6,24.8,65,30.33,10.0,NNE,11.5,-,N/A,,Overcast,20,2012-11-26 14:55:00
9:15 AM,35.6,23.0,60,30.36,10.0,North,13.8,-,N/A,,Mostly Cloudy,10,2012-11-26 15:15:00
9:35 AM,35.6,23.0,60,30.37,10.0,NNE,15.0,-,N/A,,Mostly Cloudy,20,2012-11-26 15:35:00
9:55 AM,35.6,21.2,56,30.38,10.0,NNE,13.8,-,N/A,,Mostly Cloudy,20,2012-11-26 15:55:00
10:15 AM,35.6,23.0,60,30.39,10.0,NNE,11.5,-,N/A,,Scattered Clouds,30,2012-11-26 16:15:00
10:35 AM,35.6,23.0,60,30.40,10.0,NNE,13.8,-,N/A,,Clear,20,2012-11-26 16:35:00
10:55 AM,35.6,21.2,56,30.41,10.0,NNE,13.8,-,N/A,,Scattered Clouds,20,2012-11-26 16:55:00
11:15 AM,35.6,24.8,65,30.40,4.0,NNE,13.8,17.3,N/A,Snow,Light Snow,20,2012-11-26 17:15:00
11:35 AM,35.6,24.8,65,30.41,7.0,North,10.4,-,N/A,Snow,Light Snow,10,2012-11-26 17:35:00
11:55 AM,35.6,24.8,65,30.40,5.0,North,12.7,18.4,N/A,Snow,Light Snow,10,2012-11-26 17:55:00
12:15 PM,35.6,24.8,65,30.41,4.0,North,15.0,-,N/A,Snow,Light Snow,360,2012-11-26 18:15:00
12:35 PM,33.8,26.6,75,30.41,2.0,North,11.5,16.1,N/A,Snow,Light Snow,360,2012-11-26 18:35:00
12:55 PM,33.8,26.6,75,30.41,2.0,North,13.8,18.4,N/A,Snow,Light Snow,10,2012-11-26 18:55:00
1:15 PM,35.6,26.6,70,30.41,10.0,North,11.5,-,N/A,,Mostly Cloudy,360,2012-11-26 19:15:00
1:35 PM,35.6,23.0,60,30.41,10.0,North,12.7,19.6,N/A,,Scattered Clouds,10,2012-11-26 19:35:00
1:55 PM,35.6,21.2,56,30.40,10.0,North,11.5,-,N/A,,Clear,10,2012-11-26 19:55:00
2:15 PM,35.6,19.4,52,30.40,10.0,North,10.4,18.4,N/A,,Clear,10,2012-11-26 20:15:00
2:35 PM,35.6,19.4,52,30.40,10.0,North,12.7,-,N/A,,Scattered Clouds,10,2012-11-26 20:35:00
2:55 PM,35.6,19.4,52,30.40,10.0,North,13.8,-,N/A,,Clear,350,2012-11-26 20:55:00
3:15 PM,33.8,17.6,52,30.41,10.0,North,11.5,17.3,N/A,,Clear,360,2012-11-26 21:15:00
3:35 PM,33.8,17.6,52,30.42,10.0,North,12.7,18.4,N/A,,Clear,360,2012-11-26 21:35:00
3:55 PM,33.8,15.8,48,30.42,10.0,North,11.5,-,N/A,,Clear,350,2012-11-26 21:55:00
4:15 PM,32.0,15.8,51,30.42,10.0,North,9.2,-,N/A,,Clear,10,2012-11-26 22:15:00
4:35 PM,30.2,14.0,51,30.43,10.0,North,11.5,-,N/A,,Clear,10,2012-11-26 22:35:00
4:55 PM,30.2,12.2,47,30.43,10.0,North,9.2,-,N/A,,Clear,10,2012-11-26 22:55:00
5:15 PM,28.4,12.2,51,30.43,10.0,North,8.1,-,N/A,,Clear,10,2012-11-26 23:15:00
5:35 PM,26.6,12.2,55,30.43,10.0,NNE,9.2,-,N/A,,Scattered Clouds,20,2012-11-26 23:35:00
5:55 PM,26.6,12.2,55,30.44,10.0,North,6.9,-,N/A,,Scattered Clouds,10,2012-11-26 23:55:00
6:15 PM,23.0,12.2,63,30.45,10.0,North,4.6,-,N/A,,Scattered Clouds,10,2012-11-27 00:15:00
6:35 PM,23.0,12.2,63,30.45,10.0,North,6.9,-,N/A,,Scattered Clouds,10,2012-11-27 00:35:00
6:55 PM,23.0,12.2,63,30.46,10.0,North,4.6,-,N/A,,Scattered Clouds,10,2012-11-27 00:55:00
7:15 PM,21.2,12.2,68,30.46,10.0,NE,3.5,-,N/A,,Scattered Clouds,40,2012-11-27 01:15:00
7:35 PM,21.2,10.4,63,30.46,10.0,NE,3.5,-,N/A,,Scattered Clouds,40,2012-11-27 01:35:00
7:55 PM,21.2,12.2,68,30.46,10.0,NNE,3.5,-,N/A,,Scattered Clouds,30,2012-11-27 01:55:00
8:15 PM,19.4,10.4,68,30.47,10.0,Calm,Calm,-,N/A,,Scattered Clouds,0,2012-11-27 02:15:00
8:35 PM,19.4,10.4,68,30.46,10.0,NNE,5.8,-,N/A,,Scattered Clouds,30,2012-11-27 02:35:00
8:55 PM,17.6,10.4,73,30.46,10.0,NNE,4.6,-,N/A,,Clear,20,2012-11-27 02:55:00
9:15 PM,17.6,10.4,73,30.46,10.0,North,4.6,-,N/A,,Scattered Clouds,10,2012-11-27 03:15:00
9:35 PM,19.4,10.4,68,30.47,10.0,Calm,Calm,-,N/A,,Clear,0,2012-11-27 03:35:00
9:55 PM,19.4,10.4,68,30.47,10.0,Calm,Calm,-,N/A,,Scattered Clouds,0,2012-11-27 03:55:00
10:15 PM,15.8,8.6,73,30.48,10.0,Calm,Calm,-,N/A,,Scattered Clouds,0,2012-11-27 04:15:00
10:35 PM,15.8,8.6,73,30.48,10.0,Calm,Calm,-,N/A,,Scattered Clouds,0,2012-11-27 04:35:00
10:55 PM,15.8,8.6,73,30.48,10.0,Calm,Calm,-,N/A,,Scattered Clouds,0,2012-11-27 04:55:00
11:15 PM,17.6,10.4,73,30.47,10.0,Calm,Calm,-,N/A,,Scattered Clouds,0,2012-11-27 05:15:00
11:35 PM,15.8,8.6,73,30.47,10.0,Calm,Calm,-,N/A,,Scattered Clouds,0,2012-11-27 05:35:00
11:55 PM,15.8,8.6,73,30.46,10.0,Calm,Calm,-,N/A,,Scattered Clouds,0,2012-11-27 05:55:00